Location: Tamazert
(32.6352°N, 5.2072°W)
Time: 03:23:40
(UTC+00:00)

Vanguard 2 Rocket - Pass Details

Date: 06 October 2022
Orbit: 555 x 3321 km, 32.9° (Epoch: 05 December)

Event Time Altitude Azimuth Distance (km) Brightness Sun altitude
Rises 01:06:38 0° 274° (W) 6,262 - -59.3°
Reaches altitude 10° 01:11:26 10° 275° (W) 4,827 - -58.8°
Maximum altitude 01:23:51 89° 185° (S) 1,414 - -57.4°
Drops below altitude 10° 01:30:34 10° 98° (E) 2,736 - -56.5°
Sets 01:32:36 0° 98° (E) 3,460 - -56.2°
